Weather in Mobile

United States     30°41′39″N   88°02′34″W
temp.,
°C
wind,
m/s
gust,
m/s
humid.,
%
clouds,
%
prec.,
mm/h
press.,
hPa
HPBL,
m
16 may, sun
sun1601:00+17e257067 0.0 1021109
04:00+16ene1176100 0.0 102232
07:00+17e257492 0.0 1023157
10:00+24se3557100 0.0 10241168
13:00+27sse454378 0.0 10221901
16:00+27sse55425 0.0 10201633
19:00+22sse47545 0.0 1020523
22:00+19se377347 0.0 1020258
17 may, mon
mon1701:00+18ese25826 0.0 1019160
04:00+17ese268553 0.0 1019148
07:00+18e2880100 0.0 1020245
10:00+24sse476034 0.0 10201266
13:00+27sse5652100 0.0 10201691
16:00+24sse5770100 0.0 1018769
19:00+22sse487783 0.0 1018725
22:00+20ese268920 0.0 1019285
18 may, tue
tue1801:00+20se24915 0.0 1018131
04:00+19ese279310 0.0 1018206
07:00+20ese398617 0.0 1019353
10:00+26se56516 0.0 10201179
13:00+29sse56476 0.0 10191614
16:00+28sse675315 0.0 10181524
19:00+24se487175 0.0 1018662
22:00+21se278560 0.0 1020276
19 may, wed
wed1901:00+20ese310904 0.0 1018364
04:00+20ese312875 0.0 1018644
07:00+22ese512790 0.0 1020817
10:00+27se69580 0.0 10201360
13:00+29se674710 0.0 10201986
16:00+29se684495 0.0 10191844
19:00+25sse476656 0.0 1019591
22:00+21e25777 0.0 1020151
20 may, thu
thu2001:00+20e29712 0.0 1020244
04:00+21ese413745 0.0 1019742
07:00+22ese5118042 0.0 1021882
10:00+26ese696263 0.1 10221377
13:00+28se684979 0.4 10221772
16:00+29se574591 0.0 10201947
19:00+25se47582 0.0 1021603
22:00+22e23645 0.0 1022111